Find Starlink 6095

NORAD ID: 56101 Int'l Des: 2023-046 Owner: SPXS Country: US Constellation: starlink operational
LEOCIRCULAR

当前视图

正在加载3D地球...

About Starlink 6095

Starlink 6095 (NORAD 56101) is a starlink constellation satellite (v1.5) launched Mar 29, 2023 by SPXS of US. It operates in LEO, CIRCULAR orbit with a mass of 305.00 kg.

关于 Starlink 6095

正在加载描述...

即将过境

Passes for default location (London). Set your location on the main map for personalized predictions.

高度历史

Loading altitude history...

两行轨道根数

1 56101U 23046J 26167.15238924 -.00000168 00000-0 34231-5 0 9998
2 56101 43.0102 325.1900 0001404 271.8434 88.2257 15.27576766177091
Epoch: Jun 16, 2026 • Age: 13 hours

当前状态

高度 485.9 km
速度 7.63 km/s
星下点 38.00°N, 133.75°W
发射日期 Mar 29, 2023
运行时间 3.2 years
类型 internet

技术详情

分类 Payload
质量 305.00 kg
干质量 290.00 kg
总质量 305.00 kg
长度 0.20 m
直径 2.80 m
跨度 9.00 m
形状 Box + pan
制造商 SPXS
平台类型 Starlink
阶段状态 In Orbit
所有者/国家 SPXS/US

Most Searched